Flag for Germany Weather past 2 weeks in Gotha, Thuringia, Germany

Now
65 °F

Overcast.


Feels Like: 65 °F
Forecast: 54 / 70 °F
Wind: 6 mph from Northwest

Location: Erfurt-Bindersleben

Current Time: Aug 29, 2014 at 1:12:27 PM

Latest Report: Aug 29, 2014 at 12:00 PM


Visibility: 25 mi

Pressure: 29.98 "Hg

Humidity: 78%

Dew point: 58 °F

Location of GothaLocation

Historic Weather in Gotha — Graph

°F

Gotha temperature yesterday

Maximum temperature yesterday: 71 °F (at 5:00 PM)
Minimum temperature yesterday: 46 °F (at 6:00 AM)
Average temperature yesterday: 59 °F

Past Weeks' High & Low Weather Summary

 TemperatureHumidityPressure
High71 °F (Aug 28, 5:00 PM)98% (Aug 27, 2:00 AM)30.10 "Hg (Aug 27, 2:00 AM)
Low42 °F (Aug 21, 6:00 AM)36% (Aug 22, 3:00 PM)29.70 "Hg (Aug 26, 10:00 AM)
Average56 °F75%29.94 "Hg
* Reported Aug 14 12:00 Noon — Aug 29 12:00 Noon, Gotha, Weather by CustomWeather, © 2014

Note: Actual official high and low records may vary slightly from our data, if they occured in-between our weather recording intervals... More about our weather records

Advertising

Gotha weather history for previous 24 hours

 ConditionsComfort  
Time TempWeatherWind HumidityBarometerVisibility
12:00 PM
Aug 29
65 °FOvercast.6 mph78%29.98 "Hg25 mi
11:00 AM66 °FOvercast.6 mph72%29.97 "Hg28 mi
10:00 AM65 °FOvercast.2 mph78%29.97 "Hg31 mi
9:00 AM63 °FOvercast.2 mph78%29.96 "Hg31 mi
8:00 AM62 °FOvercast.3 mph80%29.96 "Hg31 mi
7:00 AM60 °FOvercast.3 mph82%29.97 "Hg31 mi
6:00 AM59 °FPassing clouds.5 mph82%29.98 "Hg31 mi
5:00 AM60 °FPassing clouds.6 mph82%29.98 "Hg31 mi
4:00 AM60 °FPassing clouds.5 mph79%29.98 "Hg31 mi
3:00 AM61 °FOvercast.5 mph80%29.99 "Hg31 mi
2:00 AM60 °FOvercast.3 mph77%30.01 "Hg31 mi
1:00 AM61 °FOvercast.5 mph74%30.00 "Hg37 mi
12:00 AM61 °FOvercast.5 mph75%30.01 "Hg37 mi
11:00 PM
Aug 28
61 °FOvercast.5 mph73%30.01 "Hg47 mi
10:00 PM63 °FPassing clouds.3 mph69%30.01 "Hg47 mi
9:00 PM64 °FOvercast.3 mph64%30.01 "Hg47 mi
8:00 PM65 °FOvercast.3 mph61%30.00 "Hg47 mi
7:00 PM69 °FOvercast.5 mph53%29.99 "Hg47 mi
6:00 PM70 °FPartly sunny.3 mph49%30.00 "Hg47 mi
5:00 PM71 °FScattered clouds.5 mph45%30.00 "Hg47 mi
4:00 PM71 °FScattered clouds.2 mph45%30.01 "Hg47 mi
3:00 PM70 °FScattered clouds.3 mph43%30.03 "Hg47 mi
2:00 PM70 °FScattered clouds.2 mph45%30.03 "Hg47 mi
1:00 PM68 °FPassing clouds.3 mph51%30.05 "Hg47 mi
Weather by CustomWeather, © 2014

See weather overviewHow to use our weather pages